Zurück zum Katalog

SL-16 DEB

AktivLEO
NORAD 23409·DEBRIS·🇷🇺 Russia

Gestartet Nov 24, 1994 von Baikonur Cosmodrome

Loading…

Nächste Überflüge (nächste 24 Stunden)

TLE

AktuellSource: Space-Track

Epoche: Sep 14, 2026, 05:44 UTC

1 23409U 94077F   26257.23929710  .00000099  00000-0  97117-4 0  9997
2 23409  70.8807 191.8348 0089616 162.9700 197.4456 13.98981621622597

Verfolge SL-16 DEB in Echtzeit mit AllMySat

Download on the App Store